Starlink 30847

operational
NORAD ID: 58239 Int'l Des: 2023-171 Owner: SPXS Country: US Constellation: starlink
LEOCIRCULAR

About Starlink 30847

Description loading...

Live Position

Loading 3D Globe...

Upcoming Passes

Altitude History

Altitude vs Time

uPlot chart will show altitude changes over time

Two-Line Element Set

1 58239U 23171K 26036.19715669 .00001178 00000-0 10227-3 0 9994
2 58239 43.0032 102.9012 0001413 273.0477 87.0203 15.02534599124836
Epoch: Feb 5, 2026 • Age: 13 hours

Current Status

Altitude 558.5 km
Velocity 7.58 km/s
Sub-Earth Point 3.09°N, 64.7°E
Launch Date Nov 8, 2023
Age 2.2 years
Type internet

Technical Details

Classification Payload
Mass 730.00 kg
Dry Mass 700.00 kg
Total Mass 730.00 kg
Length 0.30 m
Diameter 4.10 m
Span 29.00 m
Shape Box + pan
Manufacturer SPXS
Bus Type Starlink V2M
Phase Status In Orbit
Owner/State SPXS/US

Large Constellations

Loading constellations...